GW3250 Weather Reports


time (UTC)temp
C
wind
direction
speed
KPH
gust
KPH
rain 1hr
cm
rain 24hr
cm
rain mn
cm
humidity
%
barometer
mb
20260904075514 19 153 0.0 1.6 0.00 0.81 0.81 99 1010.3
20260904075009 19 153 1.6 1.6 0.00 0.81 0.81 99 1010.1
20260904074503 19 153 1.6 1.6 0.00 0.81 0.81 99 1010.1
20260904073958 19 153 1.6 3.2 0.00 0.81 0.81 99 1009.8
20260904073454 19 155 1.6 3.2 0.00 0.81 0.81 99 1009.7
20260904072949 19 152 0.0 0.0 0.00 0.81 0.81 99 1009.8
20260904072444 19 152 0.0 0.0 0.00 0.81 0.81 99 1009.8
20260904071939 19 152 0.0 0.0 0.00 0.81 0.81 99 1009.9
20260904071435 19 152 0.0 0.0 0.00 0.81 0.81 99 1009.7
20260904070929 19 152 0.0 0.0 0.00 0.81 0.81 99 1009.8
20260904070428 19 152 0.0 0.0 0.00 0.81 0.81 99 1009.7
20260904065922 19 152 1.6 1.6 0.00 0.81 0.81 99 1010.1
20260904065419 19 152 0.0 0.0 0.00 0.81 0.81 99 1009.8
20260904064918 20 152 0.0 0.0 0.00 0.81 0.81 99 1010.1
20260904064415 20 153 0.0 0.0 0.00 0.81 0.81 99 1010.2
20260904063910 20 153 0.0 0.0 0.00 0.81 0.81 99 1010.6
20260904063407 20 153 0.0 1.6 0.00 0.81 0.81 99 1010.7
20260904062901 20 139 1.6 1.6 0.13 0.81 0.81 99 1010.6
20260904062357 20 65 1.6 3.2 0.13 0.81 0.81 99 1010.6
20260904061853 20 120 1.6 1.6 0.18 0.79 0.79 99 1010.6
20260904061349 20 98 6.4 6.4 0.48 0.79 0.79 99 1010.7
20260904060845 20 37 1.6 3.2 0.61 0.76 0.76 99 1011.1
20260904060341 20 157 0.0 0.0 0.30 0.71 0.71 99 1011.1
20260904055836 20 141 0.0 1.6 0.00 0.66 0.66 99 1011.1
20260904055331 20 152 0.0 0.0 0.00 0.66 0.66 99 1010.9
20260904054827 20 138 0.0 0.0 0.18 0.66 0.66 99 1010.5
20260904054323 20 142 1.6 1.6 2.59 0.66 0.66 99 1010.5
20260904053818 20 169 1.6 1.6 3.66 0.64 0.64 99 1010.4
20260904053317 21 129 4.8 4.8 2.29 0.38 0.38 99 1010.9
20260904052813 21 192 1.6 1.6 0.13 0.03 0.03 99 1010.9
20260904052309 21 157 0.0 0.0 0.00 0.00 0.00 99 1010.6
20260904051805 21 157 0.0 0.0 0.00 0.00 0.00 99 1010.6
20260904051300 21 157 0.0 0.0 0.00 0.00 0.00 99 1010.6
20260904050750 21 157 0.0 0.0 0.00 0.00 0.00 99 1010.8
20260904050246 21 157 0.0 0.0 0.00 0.00 0.00 99 1010.7
20260904045741 21 157 0.0 0.0 0.00 0.00 0.00 99 1010.5
20260904045235 21 157 0.0 0.0 0.00 0.00 0.00 99 1010.7
20260904044730 21 157 0.0 0.0 0.00 0.00 0.00 99 1010.5
20260904044221 21 157 0.0 0.0 0.00 0.00 0.00 99 1010.4
20260904043717 21 156 1.6 1.6 0.00 0.00 0.00 99 1010.6
20260904043213 21 157 0.0 0.0 0.00 0.00 0.00 99 1010.7
20260904042708 21 157 0.0 0.0 0.00 0.00 0.00 99 1010.6
20260904042205 21 157 0.0 0.0 0.00 0.00 0.00 99 1010.8
20260904041704 21 157 0.0 0.0 0.00 0.00 0.00 99 1011.0
20260904041201 21 157 0.0 0.0 0.00 0.00 0.00 99 1011.1
20260904040656 21 157 0.0 0.0 0.00 0.00 0.00 99 1011.1
20260904040152 21 157 1.6 1.6 0.00 0.00 0.00 99 1011.1
20260904035648 21 157 0.0 1.6 0.00 0.66 0.66 99 1011.2
20260904035143 21 157 0.0 0.0 0.00 0.66 0.66 99 1011.2
20260904034642 21 157 0.0 0.0 0.00 0.66 0.66 99 1011.4
20260904034138 21 157 0.0 1.6 0.00 0.66 0.66 99 1011.6
20260904033634 21 157 0.0 0.0 0.00 0.66 0.66 99 1011.5
20260904033131 21 157 0.0 0.0 0.00 0.66 0.66 99 1011.4
20260904032626 21 157 0.0 0.0 0.00 0.66 0.66 99 1011.0
20260904032125 21 157 0.0 0.0 0.00 0.66 0.66 99 1011.0
20260904031624 21 157 0.0 0.0 0.00 0.66 0.66 99 1010.9
20260904031120 21 157 1.6 1.6 0.00 0.66 0.66 99 1010.9
20260904030616 21 157 0.0 0.0 0.00 0.66 0.66 99 1010.9
20260904030111 21 157 0.0 1.6 0.00 0.66 0.66 99 1010.7
20260904025607 21 157 0.0 0.0 0.00 0.66 0.66 99 1010.9
20260904025101 21 157 0.0 1.6 0.00 0.66 0.66 99 1011.1
20260904024557 21 157 1.6 1.6 0.00 0.66 0.66 99 1011.4
20260904024052 21 157 0.0 0.0 0.00 0.66 0.66 99 1011.4
20260904023548 21 157 0.0 0.0 0.00 0.66 0.66 99 1011.7
20260904023044 21 157 0.0 1.6 0.00 0.66 0.66 99 1011.6
20260904022539 21 157 0.0 0.0 0.00 0.66 0.66 99 1011.6
20260904022036 21 157 0.0 0.0 0.00 0.66 0.66 99 1011.6
20260904021531 22 156 0.0 0.0 0.61 0.66 0.66 99 1011.7
20260904021026 22 157 0.0 0.0 1.37 0.66 0.66 99 1012.0
20260904020521 22 183 0.0 0.0 0.89 0.58 0.58 99 1012.3
20260904020021 22 187 3.2 4.8 0.00 0.43 0.43 99 1012.3
20260904015515 22 150 0.0 0.0 0.00 0.43 0.43 99 1012.1
20260904015014 22 150 0.0 0.0 0.00 0.43 0.43 99 1012.2
20260904014508 22 150 0.0 0.0 0.00 0.43 0.43 99 1012.2
20260904014004 22 150 0.0 0.0 0.00 0.43 0.43 99 1012.0
20260904013500 22 150 0.0 0.0 0.00 0.43 0.43 99 1012.0
20260904012956 22 150 1.6 1.6 0.00 0.43 0.43 99 1012.1
20260904012456 22 150 1.6 1.6 0.00 0.43 0.43 99 1012.2
20260904011950 22 150 0.0 0.0 0.00 0.43 0.43 99 1012.1
20260904011445 22 149 0.0 0.0 0.00 0.43 0.43 99 1012.1
20260904010940 22 159 0.0 0.0 0.00 0.43 0.43 99 1012.1
20260904010437 22 176 0.0 0.0 0.00 0.43 0.43 99 1012.0
20260904005931 22 178 1.6 1.6 0.00 0.43 0.43 99 1012.2
20260904005427 22 154 1.6 1.6 0.00 0.43 0.43 99 1012.2
20260904004921 22 154 0.0 0.0 0.00 0.43 0.43 99 1012.0
20260904004418 22 154 0.0 1.6 0.00 0.43 0.43 99 1011.7
20260904003913 22 154 0.0 0.0 0.00 0.43 0.43 99 1011.6
20260904003409 22 153 1.6 1.6 0.00 0.43 0.43 99 1011.3
20260904002903 22 152 0.0 0.0 0.00 0.43 0.43 99 1011.3
20260904002400 22 152 1.6 1.6 0.00 0.43 0.43 99 1011.3
20260904001859 22 153 0.0 1.6 0.00 0.43 0.43 99 1011.7
20260904001355 22 152 0.0 0.0 0.00 0.43 0.43 99 1011.7
20260904000849 22 152 0.0 0.0 0.00 0.43 0.43 99 1011.7
20260904000348 22 152 0.0 0.0 0.00 0.43 0.43 99 1011.8
20260903235843 22 152 0.0 0.0 0.00 0.43 0.43 99 1011.6
20260903235339 22 152 0.0 0.0 0.00 0.43 0.43 99 1011.5
20260903234838 22 152 0.0 0.0 0.00 0.43 0.43 99 1011.7
20260903234335 22 152 0.0 0.0 0.00 0.43 0.43 99 1011.5
20260903233831 22 152 0.0 0.0 0.00 0.43 0.43 99 1011.6
20260903233327 22 152 0.0 0.0 0.00 0.43 0.43 99 1011.6
20260903232826 22 152 0.0 0.0 0.00 0.43 0.43 99 1011.4
20260903232321 22 152 0.0 0.0 0.00 0.43 0.43 99 1011.2
20260903231820 22 152 0.0 0.0 0.00 0.43 0.43 99 1011.2
20260903231316 22 152 0.0 0.0 0.00 0.43 0.43 99 1011.4
20260903230811 23 152 0.0 0.0 0.00 0.43 0.43 99 1011.4
20260903230307 23 152 0.0 0.0 0.00 0.43 0.43 99 1011.2
20260903225803 23 152 0.0 0.0 0.00 0.43 0.43 98 1011.1
20260903225258 23 152 0.0 0.0 0.00 0.43 0.43 98 1010.9
20260903224755 23 152 0.0 0.0 0.00 0.43 0.43 97 1011.0
20260903224250 23 145 0.0 0.0 0.00 0.43 0.43 97 1011.1
20260903223746 24 145 0.0 1.6 0.00 0.43 0.43 96 1010.9
20260903223244 24 145 0.0 0.0 0.00 0.43 0.43 96 1011.0
20260903222739 25 145 0.0 0.0 0.00 0.43 0.43 96 1011.2
20260903222238 25 145 0.0 0.0 0.00 0.43 0.43 95 1011.3
20260903221733 25 145 0.0 0.0 0.00 0.43 0.43 94 1011.1
20260903221232 25 145 0.0 0.0 0.00 0.43 0.43 93 1011.3
20260903220730 25 145 0.0 0.0 0.00 0.43 0.43 94 1011.3
20260903220225 25 145 0.0 0.0 0.00 0.43 0.43 92 1011.2
20260903215724 25 145 1.6 1.6 0.00 0.43 0.43 91 1011.4
20260903215220 26 145 1.6 1.6 0.00 0.43 0.43 90 1011.5
20260903214718 25 144 0.0 0.0 0.00 0.43 0.43 90 1011.4
20260903214214 25 144 0.0 0.0 0.00 0.43 0.43 91 1011.4
20260903213708 26 144 0.0 0.0 0.00 0.43 0.43 88 1011.4
20260903213204 26 144 1.6 1.6 0.00 0.43 0.43 86 1011.2
20260903212700 27 144 0.0 0.0 0.00 0.43 0.43 85 1011.4
20260903212156 26 144 0.0 0.0 0.00 0.43 0.43 85 1011.3
20260903211649 26 144 0.0 0.0 0.00 0.43 0.43 86 1011.3
20260903211147 26 144 0.0 0.0 0.00 0.43 0.43 83 1011.4
20260903210642 27 144 0.0 0.0 0.00 0.43 0.43 83 1011.4
20260903210137 28 143 0.0 1.6 0.00 0.43 0.43 79 1011.3
20260903205637 27 212 0.0 1.6 0.00 0.43 0.43 81 1011.2
20260903205130 28 212 0.0 1.6 0.00 0.43 0.43 81 1011.4
20260903204626 27 212 0.0 0.0 0.00 0.43 0.43 84 1011.4
20260903204123 26 211 0.0 1.6 0.00 0.43 0.43 84 1011.5
20260903203617 26 211 0.0 0.0 0.00 0.43 0.43 85 1011.4
20260903203112 26 211 1.6 3.2 0.00 0.43 0.43 85 1011.5
20260903202608 27 209 0.0 0.0 0.00 0.43 0.43 84 1011.3
20260903202102 28 199 1.6 3.2 0.00 0.43 0.43 80 1011.3
20260903201556 28 199 0.0 0.0 0.00 0.43 0.43 80 1011.2
20260903201050 27 249 1.6 1.6 0.00 0.43 0.43 85 1011.3
20260903200546 28 196 1.6 1.6 0.00 0.43 0.43 79 1011.4
20260903200041 27 179 1.6 1.6 0.00 0.43 0.43 79 1011.4
20260903195537 27 235 4.8 4.8 0.00 0.43 0.43 80 1011.3
20260903195032 27 233 0.0 1.6 0.00 0.43 0.43 79 1011.4
20260903194527 27 223 0.0 1.6 0.00 0.43 0.43 83 1011.6
20260903194022 27 248 1.6 3.2 0.00 0.43 0.43 83 1011.5
20260903193519 27 171 1.6 3.2 0.00 0.43 0.43 83 1011.7
20260903193014 27 222 4.8 4.8 0.00 0.43 0.43 79 1011.7
20260903192510 27 178 1.6 1.6 0.00 0.43 0.43 83 1011.8
20260903192004 27 129 1.6 1.6 0.00 0.43 0.43 79 1011.9
20260903191500 27 192 4.8 4.8 0.00 0.43 0.43 78 1011.7
20260903190955 27 125 0.0 0.0 0.00 0.43 0.43 85 1012.0
20260903190454 26 175 0.0 1.6 0.00 0.43 0.43 85 1012.0
20260903185948 26 141 1.6 1.6 0.00 0.43 0.43 85 1012.1
20260903185445 26 141 0.0 1.6 0.00 0.43 0.43 87 1012.0
20260903184944 25 166 0.0 0.0 0.00 0.43 0.43 86 1012.0
20260903184442 26 137 0.0 1.6 0.00 0.43 0.43 86 1012.2
20260903183936 26 90 3.2 3.2 0.00 0.43 0.43 84 1012.1
20260903183430 27 109 1.6 1.6 0.00 0.43 0.43 82 1012.3
20260903182930 27 178 1.6 1.6 0.00 0.43 0.43 85 1012.1
20260903182429 27 187 6.4 9.7 0.00 0.43 0.43 81 1012.0
20260903181925 27 201 4.8 4.8 0.00 0.43 0.43 83 1012.3
20260903181419 27 195 8.0 9.7 0.00 0.43 0.43 79 1012.1
20260903180918 27 121 1.6 3.2 0.00 0.43 0.43 83 1012.4
20260903180413 27 219 1.6 1.6 0.00 0.43 0.43 84 1012.2
20260903175913 27 233 1.6 1.6 0.00 0.43 0.43 82 1012.2
20260903175407 27 204 6.4 9.7 0.00 0.43 0.43 81 1012.4
20260903174901 27 198 1.6 3.2 0.00 0.43 0.43 85 1012.2
20260903174356 27 189 1.6 1.6 0.00 0.43 0.43 81 1012.4
20260903173850 26 214 3.2 3.2 0.00 0.43 0.43 84 1012.4
20260903173346 27 221 3.2 4.8 0.00 0.43 0.43 84 1012.6
20260903172842 26 237 4.8 4.8 0.00 0.43 0.43 86 1012.5
20260903172336 26 213 6.4 9.7 0.00 0.43 0.43 85 1012.1
20260903171832 26 177 4.8 4.8 0.00 0.43 0.43 81 1012.5
20260903171327 26 179 6.4 6.4 0.00 0.43 0.43 85 1012.6
20260903170826 26 203 0.0 1.6 0.00 0.43 0.43 86 1012.7
20260903170322 26 226 6.4 6.4 0.00 0.43 0.43 86 1012.7
20260903165820 26 206 1.6 3.2 0.00 0.43 0.43 86 1012.6
20260903165314 25 234 6.4 9.7 0.00 0.43 0.43 86 1012.6
20260903164814 25 208 3.2 3.2 0.00 0.43 0.43 88 1012.7
20260903164310 25 199 1.6 1.6 0.00 0.43 0.43 86 1012.7
20260903163809 25 186 1.6 1.6 0.00 0.43 0.43 88 1012.8
20260903163306 25 151 3.2 6.4 0.00 0.43 0.43 86 1013.0
20260903162801 25 196 3.2 4.8 0.00 0.43 0.43 90 1013.1
20260903162257 25 240 3.2 3.2 0.00 0.43 0.43 88 1012.8
20260903161753 25 105 1.6 3.2 0.00 0.43 0.43 87 1013.1
20260903161248 24 116 0.0 1.6 0.00 0.43 0.43 90 1013.1
20260903160744 24 202 6.4 6.4 0.00 0.43 0.43 91 1013.2
20260903160243 23 224 1.6 3.2 0.00 0.43 0.43 92 1013.4
20260903155741 23 319 3.2 3.2 0.00 0.43 0.43 91 1013.4
20260903155237 22 203 3.2 3.2 0.00 0.43 0.43 95 1013.3
20260903154732 22 186 1.6 3.2 0.00 0.43 0.43 96 1013.8
20260903154228 22 162 0.0 1.6 0.00 0.43 0.43 95 1013.5
20260903153723 22 181 0.0 0.0 0.00 0.43 0.43 97 1013.6
20260903153219 22 196 3.2 3.2 0.00 0.43 0.43 97 1013.6
20260903152715 21 182 0.0 1.6 0.00 0.43 0.43 98 1013.6
20260903152212 21 177 0.0 1.6 0.00 0.43 0.43 99 1013.7
20260903151711 21 177 0.0 0.0 0.00 0.43 0.43 99 1013.6
20260903151206 21 178 3.2 3.2 0.00 0.43 0.43 99 1013.8
20260903150701 22 174 0.0 0.0 0.00 0.43 0.43 99 1013.9
20260903150155 21 180 1.6 1.6 0.00 0.43 0.43 98 1014.0
20260903145650 21 194 0.0 1.6 0.00 0.43 0.43 99 1013.9
20260903145145 21 210 3.2 3.2 0.00 0.43 0.43 99 1013.9
20260903144643 21 193 3.2 3.2 0.00 0.43 0.43 99 1013.8
20260903144140 21 207 3.2 3.2 0.00 0.43 0.43 99 1014.1
20260903143636 21 189 1.6 3.2 0.00 0.43 0.43 99 1013.9
20260903143131 21 177 3.2 3.2 0.00 0.43 0.43 99 1013.9
20260903142627 21 194 3.2 3.2 0.00 0.43 0.43 99 1013.8
20260903142123 21 193 3.2 3.2 0.00 0.43 0.43 99 1013.8
20260903141619 21 190 1.6 3.2 0.00 0.43 0.43 99 1013.8
20260903141114 20 185 0.0 0.0 0.00 0.43 0.43 99 1013.7
20260903140610 20 188 1.6 1.6 0.00 0.43 0.43 99 1013.8
20260903140105 20 170 1.6 1.6 0.00 0.43 0.43 99 1013.6
20260903135601 20 171 0.0 1.6 0.00 0.43 0.43 99 1013.7
20260903135101 19 171 0.0 1.6 0.00 0.43 0.43 99 1013.6
20260903134559 19 171 1.6 1.6 0.00 0.43 0.43 99 1013.4
20260903134055 19 171 0.0 1.6 0.00 0.43 0.43 99 1013.6
20260903133553 19 171 1.6 1.6 0.00 0.43 0.43 99 1013.5
20260903133049 19 170 1.6 1.6 0.00 0.43 0.43 99 1013.3
20260903132543 20 170 0.0 1.6 0.00 0.43 0.43 99 1013.2
20260903132038 19 170 0.0 1.6 0.00 0.43 0.43 99 1013.5
20260903131533 18 170 1.6 1.6 0.00 0.43 0.43 99 1013.5
20260903131032 18 170 1.6 1.6 0.00 0.43 0.43 99 1013.4
20260903130526 18 169 1.6 1.6 0.00 0.43 0.43 99 1013.6
20260903130021 18 170 1.6 1.6 0.00 0.43 0.43 99 1013.4
20260903125520 18 169 1.6 1.6 0.00 0.43 0.43 99 1013.4
20260903125015 18 169 0.0 0.0 0.00 0.43 0.43 99 1013.7
20260903124509 18 169 0.0 0.0 0.00 0.43 0.43 99 1013.5
20260903124008 18 169 0.0 0.0 0.00 0.43 0.43 99 1013.5
20260903123504 18 169 0.0 0.0 0.00 0.43 0.43 99 1013.4
20260903123002 18 169 0.0 0.0 0.00 0.43 0.43 99 1013.3
20260903122502 18 169 0.0 0.0 0.00 0.43 0.43 99 1013.3
20260903121955 18 169 0.0 0.0 0.00 0.43 0.43 99 1013.3
20260903121450 18 169 0.0 0.0 0.00 0.43 0.43 99 1013.3
20260903120947 18 169 1.6 1.6 0.00 0.43 0.43 99 1013.2
20260903120445 17 169 0.0 0.0 0.00 0.43 0.43 99 1013.1
20260903115944 17 169 0.0 0.0 0.00 0.43 0.43 99 1013.4
20260903115444 17 114 1.6 1.6 0.00 0.43 0.43 99 1013.3
20260903114939 17 114 0.0 0.0 0.00 0.43 0.43 99 1013.3
20260903114434 17 114 0.0 0.0 0.00 0.43 0.43 99 1013.6
20260903113930 17 114 0.0 0.0 0.00 0.43 0.43 99 1013.5
20260903113426 17 114 0.0 0.0 0.00 0.43 0.43 99 1013.5
20260903112921 17 114 0.0 0.0 0.00 0.43 0.43 99 1013.4
20260903112416 17 114 0.0 1.6 0.00 0.43 0.43 99 1013.7
20260903111916 17 114 0.0 0.0 0.00 0.43 0.43 99 1013.5
20260903111415 17 114 1.6 1.6 0.00 0.43 0.43 99 1013.7
20260903110911 17 114 0.0 0.0 0.00 0.43 0.43 99 1013.8
20260903110407 17 114 0.0 0.0 0.00 0.43 0.43 99 1013.8
20260903105901 17 113 0.0 0.0 0.00 0.43 0.43 99 1013.7
20260903105357 17 113 0.0 0.0 0.00 0.43 0.43 99 1014.1
20260903104856 17 113 0.0 1.6 0.00 0.43 0.43 99 1014.0
20260903104351 17 113 1.6 1.6 0.00 0.43 0.43 99 1014.0
20260903103848 17 113 0.0 0.0 0.00 0.43 0.43 99 1014.1
20260903103344 17 113 0.0 0.0 0.00 0.43 0.43 99 1014.0
20260903102839 17 113 0.0 0.0 0.00 0.43 0.43 99 1013.9
20260903102338 17 113 1.6 1.6 0.00 0.43 0.43 99 1014.1
20260903101833 17 113 0.0 0.0 0.00 0.43 0.43 99 1014.2
20260903101328 17 113 0.0 0.0 0.00 0.43 0.43 99 1013.7
20260903100824 17 113 1.6 1.6 0.00 0.43 0.43 99 1013.6
20260903100323 17 113 1.6 1.6 0.00 0.43 0.43 99 1013.5
20260903095815 17 113 1.6 1.6 0.00 0.43 0.43 99 1013.7
20260903095309 17 113 0.0 0.0 0.00 0.43 0.43 99 1014.2
20260903094805 17 113 0.0 0.0 0.00 0.43 0.43 99 1013.8
20260903094259 17 113 0.0 0.0 0.00 0.43 0.43 99 1013.9
20260903093755 17 113 0.0 0.0 0.00 0.43 0.43 99 1013.9
20260903093250 17 113 0.0 0.0 0.00 0.43 0.43 99 1013.6
20260903092750 17 113 0.0 0.0 0.00 0.43 0.43 99 1013.6
20260903092245 17 100 0.0 0.0 0.00 0.43 0.43 99 1013.8
20260903091743 17 99 0.0 0.0 0.00 0.43 0.43 99 1013.9
20260903091232 17 99 0.0 0.0 0.00 0.43 0.43 99 1013.7
20260903090727 17 99 0.0 0.0 0.00 0.43 0.43 99 1013.8
20260903090225 17 99 0.0 0.0 0.00 0.43 0.43 99 1013.7
20260903085720 17 99 0.0 0.0 0.00 0.43 0.43 99 1013.3
20260903085215 17 99 0.0 0.0 0.00 0.43 0.43 99 1013.8
20260903084713 17 99 0.0 0.0 0.00 0.43 0.43 99 1013.6
20260903084208 17 98 0.0 0.0 0.00 0.43 0.43 99 1013.3
20260903083703 17 163 0.0 0.0 0.00 0.43 0.43 99 1013.3
20260903083203 17 163 0.0 0.0 0.00 0.43 0.43 99 1013.5
20260903082657 17 163 1.6 1.6 0.00 0.43 0.43 99 1013.5
20260903082153 17 164 0.0 0.0 0.00 0.43 0.43 99 1013.5
20260903081648 17 184 0.0 0.0 0.00 0.43 0.43 99 1013.8
20260903081144 17 185 0.0 0.0 0.00 0.43 0.43 99 1013.8
20260903080640 17 185 0.0 0.0 0.00 0.43 0.43 99 1013.6
20260903080137 17 175 0.0 0.0 0.00 0.43 0.43 99 1013.6